Flag for Japan Weather past 2 weeks in Himeji, Japan

Now
73 °F

Broken clouds.


Feels Like: 75 °F
Forecast: 63 / 75 °F
Wind: 9 mph from East

Location: Osaka International Airport

Current Time: Sep 24, 2014 at 8:39:49 AM

Latest Report: Sep 24, 2014 at 8:00 AM


Visibility: N/A

Pressure: 29.98 "Hg

Humidity: 74%

Dew point: 64 °F

Location of HimejiLocation

Historic Weather in Himeji — Graph

°F

Himeji temperature yesterday

Maximum temperature yesterday: 84 °F (at 2:00 PM)
Minimum temperature yesterday: 59 °F (at 6:00 AM)
Average temperature yesterday: 75 °F

Past Weeks' High & Low Weather Summary

 TemperatureHumidityPressure
High88 °F (Sep 9, 1:00 PM)100% (Sep 11, 5:00 AM)30.15 "Hg (Sep 11, 5:00 AM)
Low59 °F (Sep 21, 5:00 AM)27% (Sep 22, 1:00 PM)29.65 "Hg (Sep 9, 3:00 PM)
Average75 °F56%29.91 "Hg
* Reported Sep 9 7:00 AM — Sep 24 7:00 AM, Himeji, Weather by CustomWeather, © 2014

Note: Actual official high and low records may vary slightly from our data, if they occured in-between our weather recording intervals... More about our weather records

Advertising

Himeji weather history for previous 24 hours

 ConditionsComfort  
Time TempWeatherWind HumidityBarometerVisibility
7:00 AM
Sep 24
72 °FBroken clouds.7 mph73%30.01 "HgN/A
6:00 AM72 °FLight rain. Broken clouds.5 mph69%30.01 "HgN/A
5:00 AM72 °FLight rain. Passing clouds.7 mph73%30.01 "HgN/A
8:00 PM
Sep 23
75 °FPartly cloudy.2 mph69%30.09 "HgN/A
7:00 PM75 °FPassing clouds.7 mph65%30.07 "HgN/A
6:00 PM77 °FPassing clouds.7 mph51%30.07 "HgN/A
5:00 PM81 °FPassing clouds.10 mph39%30.04 "HgN/A
4:00 PM82 °FScattered clouds.7 mph30%30.04 "HgN/A
3:00 PM84 °FScattered clouds.9 mph33%30.04 "HgN/A
2:45 PM82 °FScattered clouds.12 mph35%30.04 "HgN/A
2:00 PM84 °FScattered clouds.5 mph31%30.04 "HgN/A
1:00 PM82 °FScattered clouds.5 mph35%30.07 "HgN/A
12:00 PM81 °FScattered clouds.6 mph42%30.09 "HgN/A
11:00 AM77 °FPassing clouds.7 mph47%30.12 "HgN/A
10:00 AM75 °FPassing clouds.9 mph44%30.12 "HgN/A
9:00 AM73 °FPassing clouds.8 mph50%30.15 "HgN/A
8:00 AM68 °FSunny.2 mph60%30.15 "Hg10 mi
Weather by CustomWeather, © 2014

See weather overviewHow to use our weather pages